Simultaneous Nadir Overpasses (SNOs) Predictions

Prediction of SNOs between AQUA and GOES-15 Satellite Orbit:

Table of predicted SNOs for the next 14.0 days since TLE Epoch: 7/21/2012
Index Date Time (AQUA) AQUA Lat,Lon GOES-15 Lat,Lon Distance(km) Time Diff (sec)
1 07/22/2012 22:35:15 0.37,-135.01 0.33,-135.35 38.25 80
2 07/24/2012 22:23:03 1.05,-132.06 0.33,-135.33 372.44 80
3 07/25/2012 10:44:18 0.06,-137.21 -0.34,-135.33 213.86 80
4 07/27/2012 10:32:05 -0.57,-134.25 -0.34,-135.30 119.32 80
5 07/27/2012 22:53:29 -0.52,-139.45 0.35,-135.28 473.35 80
6 07/29/2012 10:19:52 -1.21,-131.29 -0.35,-135.26 451.75 80
7 07/29/2012 22:41:16 0.12,-136.49 0.36,-135.24 141.00 80
8 07/31/2012 22:29:02 0.72,-133.52 0.37,-135.20 191.11 80
9 08/01/2012 10:50:17 0.38,-138.67 -0.37,-135.20 395.21 80
10 08/03/2012 10:38:04 -0.29,-135.72 -0.37,-135.16 63.23 80




NCC Satellite Simultaneous Nadir Overpasses (SNOs) Prediction Service
